Погода в Пайтовской

Россия / Архангельская область     61°16′08″N   42°22′45″E
темп.,
°C
ветер,
м/с
пор.,
м/с
влажн.,
%
обл.,
%
осадки,
мм/ч
давл.,
гПа
погр.,
м
18 сентября, сб
сб1800:00+3с3879100 0.0 1024592
03:00+4с3770100 0.0 1025334
06:00+3ссз2775100 0.0 1025242
09:00+5ссз3866100 0.0 1026570
12:00+8с465499 0.0 10261658
15:00+7с3666100 0.1 10271103
18:00+5с377689 0.1 1027662
21:00+1ссз269460 0.1 1028113
19 сентября, вс
вс1900:00+3ссз278493 0.0 1028265
03:00+1ссз26965 0.0 1029154
06:00−1с28979 0.0 1029199
09:00+4с3769100 0.0 1030806
12:00+6ссв4656100 0.0 10301397
15:00+6ссв3558100 0.0 10301423
18:00+5ссв3763100 0.0 1030412
21:00+4ссв2667100 0.0 1031262
20 сентября, пн
пн2000:00+3св2772100 0.0 1032247
03:00+3св2671100 0.0 1032200
06:00+3св2671100 0.0 1032270
09:00+4всв3563100 0.0 10331002
12:00+6всв3553100 0.0 10321439
15:00+6всв3457100 0.0 10321281
18:00+3всв22705 0.0 103237
21:000св24845 0.0 103288
21 сентября, вт
вт2100:000всв249223 0.0 103286
03:00−1всв2593100 0.0 103197
06:000всв2691100 0.0 1030159
09:00+4в376999 0.0 1029428
12:00+8в4556100 0.0 1027996
15:00+8в3557100 0.0 10251117
18:00+5в237869 0.0 102558
21:00+2всв288976 0.0 1025165
22 сентября, ср
ср2200:00+2всв2987100 0.0 1024224
03:00+2всв398647 0.0 1023246
06:00+1всв3109397 0.0 1023236
09:00+5в486994 0.0 1023425
12:00+9в465396 0.0 1022846
15:00+10в365299 0.0 1021981
18:00+6всв377431 0.0 1021148
21:00+4всв2108311 0.0 1020254